Notices

What's New in latest Release from April 7th, 2021:

- Updated Glossary, including Speed of Maximum Gust, and Total Hourly Precipitation

- Updated national and regional climate services offices contacts and prices information

- Addition of station inventory lists for 1981-2010, 1971-2000, and 1961-1990 Normals.

If you haven't already, please take our survey and provide feedback about our website: https://eccc.sondage-survey.ca/f/LanguageSelection.aspx?s=442ca660-fcf1-47c0-95a9-59707d6fd709

Hourly Data Report for April 01, 2021

CLYDE RIVER A
NUNAVUT
Current Station Operator: NAVCAN

70°29'09.000" N
68°31'01.000" W
26.50 m
2400804
71090
YCY

Download Data

Hourly Data (April 2021)
Hourly Data Report for April 1, 2021
TIME
LST
Temp Definition
°C
Dew Point Definition
°C
Rel Hum Definition
%
Precip. Amount Definition
mm

Wind Dir Definition
10's deg

Wind Spd Definition
km/h
Visibility Definition
km
Stn Press Definition
kPa
Hmdx Definition


Wind Chill Definition


Weather Definition


00:00 -24.1 -28.3 69 0.0 32 22 16.1 101.05   -36 Snow
01:00 -24.3 -27.7 74 0.0 32 28 6.4 101.02   -38 Snow
02:00 -24.3 -27.7 74 0.0 31 30 8.1 100.95   -38 Snow
03:00 -24.6 -27.8 75 0.0 30 30 14.5 100.92   -39 Snow
04:00 -25.0 -27.7 79 0.0 31 41 1.6 100.86   -41 Snow,Blowing Snow
05:00 -25.5 -28.1 79 0.0 32 45 1.2 100.79   -42 Snow,Blowing Snow
06:00 -25.6 -28.2 79 0.0 31 45 0.6 100.70   -42 Moderate Snow,Blowing Snow
07:00 -25.4 -27.9 80 0.1 31 61 0.2 100.53   -44 Heavy Snow,Blowing Snow
08:00 -25.4 -27.9 80 0.2 32 59 0.2 100.46   -44 Heavy Snow,Blowing Snow
09:00 -25.3 -28.0 79 0.1 32 54 0.2 100.45   -43 Heavy Snow,Blowing Snow
10:00 -25.5 -28.1 79 0.1 31 55 0.2 100.36   -44 Heavy Snow,Blowing Snow
11:00 -25.4 -28.2 78 0.1 32 59 0.2 100.29   -44 Heavy Snow,Blowing Snow
12:00 -25.5 -28.4 77 0.0 31 43 1.0 100.39   -42 Blowing Snow
13:00 -25.5 -28.6 76 0.0 30 37 2.0 100.41   -41 Haze
14:00 -25.6 -29.0 74 0.0 31 39 2.8 100.38   -41 Blowing Snow
15:00 -25.8 -29.2 74 0.0 31 32 9.7 100.38   -41 Haze
16:00 -26.2 -29.9 72 0.0 33 32 16.1 100.40   -41 LegendNANA
17:00 -27.1 -30.6 73 0.0 33 18 16.1 100.49   -39 LegendNANA
18:00 -28.0 -31.5 73 0.0 LegendMM 4 16.1 100.58   -32 LegendNANA
19:00 -27.8 -31.4 72 0.0 4 5 16.1 100.67   -33 LegendNANA
20:00 -30.0 -33.4 73 0.0 1 9 16.1 100.74   -39 LegendNANA
21:00 -32.3 -35.5 74 0.0 32 17 16.1 100.89   -45 LegendNANA
22:00 -30.5 -33.4 76 0.0 17 5 16.1 100.98   -36 LegendNANA
23:00 -27.6 -31.5 70 0.0 23 15 16.1 101.09   -38 LegendNANA

Notes on Data Quality.

Legend

  • E = Estimated
  • M = Missing
  • NA = Not Available*
  • [empty] = Indicates an unobserved value
Date modified: